| time (UTC) | temp F | wind direction | speed knots | gust knots | rain 1hr in | rain 24hr in | rain mn in | humidity % | barometer mb |
| 20260504042056 | 41 | 119 | 0.9 | 1.7 | 0.00 | 0.00 | 0.00 | 59 | 1008.0 |
| 20260504041611 | 41 | 0.0 | 1.7 | 0.00 | 0.00 | 0.00 | 56 | 1007.9 | |
| 20260504041038 | 42 | 81 | 0.0 | 1.7 | 0.00 | 0.00 | 0.00 | 54 | 1007.7 |
| 20260504040528 | 42 | 116 | 0.9 | 1.7 | 0.00 | 0.00 | 0.00 | 50 | 1007.7 |
| 20260504040026 | 42 | 117 | 0.9 | 2.6 | 0.00 | 0.00 | 0.00 | 50 | 1007.7 |
| 20260504035519 | 42 | 126 | 1.7 | 2.6 | 0.00 | 0.00 | 0.00 | 51 | 1007.5 |
| 20260504035111 | 42 | 110 | 0.9 | 1.7 | 0.00 | 0.00 | 0.00 | 50 | 1007.7 |
| 20260504034559 | 42 | 129 | 2.6 | 3.5 | 0.00 | 0.00 | 0.00 | 52 | 1007.6 |
| 20260504034046 | 42 | 127 | 1.7 | 3.5 | 0.00 | 0.00 | 0.00 | 57 | 1007.6 |
| 20260504033631 | 42 | 133 | 0.9 | 1.7 | 0.00 | 0.00 | 0.00 | 53 | 1007.7 |
| 20260504033021 | 43 | 140 | 1.7 | 1.7 | 0.00 | 0.00 | 0.00 | 52 | 1007.6 |
| 20260504032613 | 43 | 132 | 1.7 | 1.7 | 0.00 | 0.00 | 0.00 | 48 | 1007.6 |
| 20260504032124 | 43 | 132 | 1.7 | 2.6 | 0.00 | 0.00 | 0.00 | 48 | 1007.6 |
| 20260504031550 | 43 | 119 | 1.7 | 1.7 | 0.00 | 0.00 | 0.00 | 48 | 1007.6 |
| 20260504031033 | 43 | 116 | 1.7 | 2.6 | 0.00 | 0.00 | 0.00 | 48 | 1007.6 |
| 20260504030529 | 44 | 124 | 1.7 | 2.6 | 0.00 | 0.00 | 0.00 | 48 | 1007.5 |
| 20260504030020 | 43 | 123 | 1.7 | 2.6 | 0.00 | 0.00 | 0.00 | 48 | 1007.5 |
| 20260504025612 | 43 | 108 | 1.7 | 2.6 | 0.00 | 0.00 | 0.00 | 49 | 1007.5 |
| 20260504025055 | 43 | 109 | 1.7 | 2.6 | 0.00 | 0.00 | 0.00 | 49 | 1007.4 |
| 20260504024613 | 44 | 129 | 2.6 | 2.6 | 0.00 | 0.00 | 0.00 | 49 | 1007.5 |
| 20260504024040 | 44 | 127 | 1.7 | 2.6 | 0.00 | 0.00 | 0.00 | 48 | 1007.5 |
| 20260504023534 | 44 | 126 | 1.7 | 2.6 | 0.00 | 0.00 | 0.00 | 48 | 1007.5 |
| 20260504023102 | 44 | 121 | 1.7 | 2.6 | 0.00 | 0.00 | 0.00 | 48 | 1007.4 |
| 20260504022614 | 44 | 123 | 1.7 | 2.6 | 0.00 | 0.00 | 0.00 | 48 | 1007.4 |
| 20260504021559 | 44 | 126 | 1.7 | 3.5 | 0.00 | 0.00 | 0.00 | 47 | 1007.3 |
| 20260504021046 | 44 | 123 | 1.7 | 2.6 | 0.00 | 0.00 | 0.00 | 46 | 1007.2 |
| 20260504020537 | 45 | 115 | 1.7 | 2.6 | 0.00 | 0.00 | 0.00 | 46 | 1007.2 |
| 20260504020031 | 45 | 120 | 1.7 | 1.7 | 0.00 | 0.00 | 0.00 | 45 | 1007.2 |
| 20260504015518 | 45 | 118 | 0.9 | 2.6 | 0.00 | 0.00 | 0.00 | 45 | 1007.2 |
| 20260504015110 | 45 | 115 | 0.9 | 1.7 | 0.00 | 0.00 | 0.00 | 45 | 1007.2 |
| 20260504014559 | 45 | 114 | 0.9 | 2.6 | 0.00 | 0.00 | 0.00 | 45 | 1007.1 |
| 20260504014057 | 45 | 125 | 1.7 | 2.6 | 0.00 | 0.00 | 0.00 | 45 | 1007.2 |
| 20260504013545 | 46 | 120 | 1.7 | 2.6 | 0.00 | 0.00 | 0.00 | 44 | 1007.1 |
| 20260504013056 | 45 | 127 | 1.7 | 2.6 | 0.00 | 0.00 | 0.00 | 45 | 1007.0 |
| 20260504012522 | 46 | 129 | 1.7 | 3.5 | 0.00 | 0.00 | 0.00 | 44 | 1007.0 |
| 20260504012037 | 45 | 124 | 1.7 | 2.6 | 0.00 | 0.00 | 0.00 | 44 | 1006.8 |
| 20260504011607 | 45 | 126 | 1.7 | 2.6 | 0.00 | 0.00 | 0.00 | 44 | 1006.9 |
| 20260504011059 | 45 | 112 | 1.7 | 1.7 | 0.00 | 0.00 | 0.00 | 44 | 1006.8 |
| 20260504010557 | 46 | 126 | 1.7 | 2.6 | 0.00 | 0.00 | 0.00 | 45 | 1006.8 |
| 20260504010048 | 46 | 132 | 1.7 | 2.6 | 0.00 | 0.00 | 0.00 | 45 | 1006.6 |
| 20260504005539 | 46 | 125 | 1.7 | 2.6 | 0.00 | 0.00 | 0.00 | 45 | 1006.4 |
| 20260504005031 | 45 | 121 | 1.7 | 2.6 | 0.00 | 0.00 | 0.00 | 45 | 1006.4 |
| 20260504004521 | 45 | 114 | 1.7 | 2.6 | 0.00 | 0.00 | 0.00 | 46 | 1006.2 |
| 20260504004116 | 45 | 114 | 1.7 | 1.7 | 0.00 | 0.00 | 0.00 | 48 | 1006.1 |
| 20260504003607 | 45 | 88 | 0.9 | 1.7 | 0.00 | 0.00 | 0.00 | 47 | 1006.2 |
| 20260504003055 | 45 | 96 | 0.9 | 1.7 | 0.00 | 0.00 | 0.00 | 47 | 1006.0 |
| 20260504002543 | 45 | 90 | 0.9 | 1.7 | 0.00 | 0.00 | 0.00 | 45 | 1006.0 |
| 20260504002031 | 45 | 93 | 0.9 | 1.7 | 0.00 | 0.00 | 0.00 | 45 | 1006.0 |
| 20260504001526 | 46 | 95 | 0.9 | 1.7 | 0.00 | 0.00 | 0.00 | 46 | 1005.9 |
| 20260504001023 | 46 | 92 | 0.9 | 1.7 | 0.00 | 0.00 | 0.00 | 46 | 1005.9 |
| 20260504000516 | 46 | 90 | 0.9 | 1.7 | 0.00 | 0.00 | 0.00 | 45 | 1005.9 |
| 20260504000111 | 46 | 91 | 0.9 | 1.7 | 0.00 | 0.00 | 0.00 | 45 | 1005.8 |
| 20260503235601 | 47 | 89 | 0.9 | 1.7 | 0.00 | 0.00 | 0.00 | 46 | 1005.8 |
| 20260503235050 | 48 | 89 | 0.9 | 1.7 | 0.00 | 0.00 | 0.00 | 44 | 1005.7 |
| 20260503234546 | 48 | 90 | 0.9 | 1.7 | 0.00 | 0.00 | 0.00 | 44 | 1005.7 |
| 20260503234039 | 49 | 112 | 0.9 | 1.7 | 0.00 | 0.00 | 0.00 | 45 | 1005.7 |
| 20260503233546 | 50 | 99 | 0.9 | 1.7 | 0.00 | 0.00 | 0.00 | 44 | 1005.6 |
| 20260503233111 | 51 | 49 | 0.9 | 1.7 | 0.00 | 0.00 | 0.00 | 42 | 1005.7 |
| 20260503232620 | 51 | 309 | 0.9 | 1.7 | 0.00 | 0.00 | 0.00 | 39 | 1005.7 |
| 20260503232055 | 52 | 309 | 1.7 | 2.6 | 0.00 | 0.00 | 0.00 | 37 | 1005.6 |
| 20260503231546 | 52 | 303 | 1.7 | 2.6 | 0.00 | 0.00 | 0.00 | 37 | 1005.5 |
| 20260503231041 | 51 | 300 | 2.6 | 4.3 | 0.00 | 0.00 | 0.00 | 38 | 1005.6 |
| 20260503230527 | 51 | 291 | 2.6 | 6.1 | 0.00 | 0.00 | 0.00 | 38 | 1005.4 |
| 20260503230020 | 52 | 297 | 2.6 | 5.2 | 0.00 | 0.00 | 0.00 | 37 | 1005.5 |
| 20260503225618 | 52 | 299 | 3.5 | 7.8 | 0.00 | 0.00 | 0.00 | 38 | 1005.4 |
| 20260503225105 | 52 | 299 | 3.5 | 7.8 | 0.00 | 0.00 | 0.00 | 37 | 1005.4 |
| 20260503224556 | 52 | 289 | 4.3 | 7.8 | 0.00 | 0.00 | 0.00 | 37 | 1005.4 |
| 20260503224047 | 52 | 292 | 4.3 | 7.8 | 0.00 | 0.00 | 0.00 | 37 | 1005.3 |
| 20260503223537 | 52 | 308 | 2.6 | 9.6 | 0.00 | 0.00 | 0.00 | 38 | 1005.2 |
| 20260503223053 | 52 | 288 | 3.5 | 11.3 | 0.00 | 0.00 | 0.00 | 37 | 1005.3 |
| 20260503222517 | 52 | 320 | 2.6 | 5.2 | 0.00 | 0.00 | 0.00 | 40 | 1005.1 |
| 20260503222113 | 52 | 43 | 0.9 | 3.5 | 0.00 | 0.00 | 0.00 | 39 | 1005.1 |
| 20260503221559 | 52 | 338 | 2.6 | 13.0 | 0.00 | 0.00 | 0.00 | 38 | 1005.1 |
| 20260503221055 | 52 | 294 | 3.5 | 13.0 | 0.00 | 0.00 | 0.00 | 39 | 1005.1 |
| 20260503220545 | 52 | 294 | 4.3 | 10.4 | 0.00 | 0.00 | 0.00 | 38 | 1005.3 |
| 20260503220036 | 52 | 299 | 3.5 | 7.8 | 0.00 | 0.00 | 0.00 | 39 | 1005.1 |
| 20260503215556 | 52 | 292 | 4.3 | 9.6 | 0.00 | 0.00 | 0.00 | 39 | 1005.2 |
| 20260503215046 | 53 | 304 | 5.2 | 12.2 | 0.00 | 0.00 | 0.00 | 37 | 1005.0 |
| 20260503214600 | 53 | 298 | 4.3 | 8.7 | 0.00 | 0.00 | 0.00 | 38 | 1005.1 |
| 20260503214111 | 52 | 265 | 5.2 | 9.6 | 0.00 | 0.00 | 0.00 | 38 | 1004.8 |
| 20260503213617 | 52 | 281 | 6.1 | 11.3 | 0.00 | 0.00 | 0.00 | 38 | 1004.9 |
| 20260503213051 | 52 | 290 | 7.8 | 13.0 | 0.00 | 0.00 | 0.00 | 37 | 1004.8 |
| 20260503212549 | 52 | 296 | 7.0 | 9.6 | 0.00 | 0.00 | 0.00 | 37 | 1004.7 |
| 20260503212042 | 53 | 284 | 7.0 | 11.3 | 0.00 | 0.00 | 0.00 | 35 | 1004.6 |
| 20260503211535 | 54 | 287 | 6.1 | 11.3 | 0.00 | 0.00 | 0.00 | 36 | 1004.7 |
| 20260503211029 | 54 | 293 | 7.0 | 14.8 | 0.00 | 0.00 | 0.00 | 36 | 1004.5 |
| 20260503210527 | 54 | 299 | 6.1 | 13.0 | 0.00 | 0.00 | 0.00 | 36 | 1004.5 |
| 20260503210113 | 53 | 297 | 6.1 | 13.9 | 0.00 | 0.00 | 0.00 | 37 | 1004.5 |
| 20260503205607 | 53 | 294 | 7.8 | 13.0 | 0.00 | 0.00 | 0.00 | 37 | 1004.3 |
| 20260503205055 | 52 | 305 | 3.5 | 12.2 | 0.00 | 0.00 | 0.00 | 38 | 1004.3 |
| 20260503204542 | 52 | 300 | 5.2 | 8.7 | 0.00 | 0.00 | 0.00 | 38 | 1004.3 |
| 20260503204053 | 52 | 284 | 6.1 | 13.0 | 0.00 | 0.00 | 0.00 | 37 | 1004.3 |
| 20260503203527 | 52 | 293 | 6.1 | 8.7 | 0.00 | 0.00 | 0.00 | 39 | 1004.4 |
| 20260503203119 | 52 | 320 | 4.3 | 9.6 | 0.00 | 0.00 | 0.00 | 40 | 1004.3 |
| 20260503202604 | 51 | 306 | 3.5 | 7.8 | 0.00 | 0.00 | 0.00 | 40 | 1004.3 |
| 20260503202058 | 51 | 308 | 4.3 | 9.6 | 0.00 | 0.00 | 0.00 | 37 | 1004.2 |
| 20260503201553 | 52 | 293 | 4.3 | 9.6 | 0.00 | 0.00 | 0.00 | 38 | 1004.2 |
| 20260503201048 | 52 | 291 | 7.0 | 9.6 | 0.00 | 0.00 | 0.00 | 39 | 1004.0 |
| 20260503200542 | 52 | 289 | 3.5 | 13.0 | 0.00 | 0.00 | 0.00 | 37 | 1004.1 |
| 20260503200034 | 52 | 289 | 6.1 | 12.2 | 0.00 | 0.00 | 0.00 | 36 | 1004.0 |
| 20260503195519 | 53 | 296 | 7.0 | 12.2 | 0.00 | 0.00 | 0.00 | 36 | 1004.0 |
| 20260503195111 | 54 | 284 | 7.8 | 11.3 | 0.00 | 0.00 | 0.00 | 36 | 1004.0 |
| 20260503194559 | 53 | 284 | 8.7 | 13.0 | 0.00 | 0.00 | 0.00 | 36 | 1003.9 |
| 20260503194051 | 54 | 285 | 7.8 | 13.0 | 0.00 | 0.00 | 0.00 | 37 | 1003.9 |
| 20260503193539 | 54 | 270 | 7.8 | 11.3 | 0.00 | 0.00 | 0.00 | 36 | 1004.0 |
| 20260503193040 | 54 | 298 | 6.1 | 13.0 | 0.00 | 0.00 | 0.00 | 36 | 1003.9 |
| 20260503192527 | 54 | 282 | 7.8 | 13.0 | 0.00 | 0.00 | 0.00 | 37 | 1003.9 |
| 20260503192018 | 54 | 288 | 7.0 | 11.3 | 0.00 | 0.00 | 0.00 | 37 | 1003.8 |
| 20260503191616 | 54 | 294 | 7.8 | 13.0 | 0.00 | 0.00 | 0.00 | 36 | 1003.8 |
| 20260503191113 | 56 | 296 | 4.3 | 10.4 | 0.00 | 0.00 | 0.00 | 37 | 1003.9 |
| 20260503190602 | 55 | 319 | 1.7 | 5.2 | 0.00 | 0.00 | 0.00 | 41 | 1004.0 |
| 20260503190056 | 52 | 282 | 5.2 | 13.9 | 0.00 | 0.00 | 0.00 | 38 | 1004.0 |
| 20260503185546 | 52 | 297 | 8.7 | 13.9 | 0.00 | 0.00 | 0.00 | 38 | 1004.2 |
| 20260503185041 | 53 | 292 | 7.0 | 10.4 | 0.00 | 0.00 | 0.00 | 40 | 1004.0 |
| 20260503184529 | 51 | 292 | 7.0 | 11.3 | 0.00 | 0.00 | 0.00 | 41 | 1004.1 |
| 20260503184020 | 51 | 285 | 5.2 | 11.3 | 0.00 | 0.00 | 0.00 | 41 | 1004.2 |
| 20260503183617 | 51 | 297 | 6.1 | 13.9 | 0.00 | 0.00 | 0.00 | 43 | 1004.1 |
| 20260503183125 | 51 | 280 | 5.2 | 10.4 | 0.00 | 0.00 | 0.00 | 42 | 1004.2 |
| 20260503182553 | 51 | 296 | 7.0 | 12.2 | 0.00 | 0.00 | 0.00 | 40 | 1003.9 |
| 20260503182047 | 52 | 285 | 7.8 | 12.2 | 0.00 | 0.00 | 0.00 | 40 | 1003.9 |
| 20260503181541 | 53 | 303 | 4.3 | 9.6 | 0.00 | 0.00 | 0.00 | 41 | 1004.0 |
| 20260503181101 | 52 | 289 | 6.1 | 10.4 | 0.00 | 0.00 | 0.00 | 41 | 1004.0 |
| 20260503180531 | 51 | 288 | 6.1 | 9.6 | 0.00 | 0.00 | 0.00 | 42 | 1004.0 |
| 20260503180022 | 51 | 292 | 8.7 | 13.0 | 0.00 | 0.00 | 0.00 | 42 | 1004.2 |
| 20260503175615 | 51 | 288 | 6.1 | 13.9 | 0.00 | 0.00 | 0.00 | 43 | 1004.1 |
| 20260503175105 | 50 | 280 | 7.0 | 14.8 | 0.00 | 0.00 | 0.00 | 42 | 1004.1 |
| 20260503174559 | 51 | 292 | 7.0 | 14.8 | 0.00 | 0.00 | 0.00 | 43 | 1004.1 |
| 20260503174047 | 52 | 302 | 3.5 | 9.6 | 0.00 | 0.00 | 0.00 | 44 | 1004.0 |
| 20260503173535 | 51 | 280 | 5.2 | 9.6 | 0.00 | 0.00 | 0.00 | 44 | 1004.0 |
| 20260503173043 | 50 | 289 | 5.2 | 10.4 | 0.00 | 0.00 | 0.00 | 44 | 1004.0 |
| 20260503172632 | 50 | 319 | 4.3 | 10.4 | 0.00 | 0.00 | 0.00 | 43 | 1004.0 |
| 20260503172107 | 50 | 293 | 4.3 | 11.3 | 0.00 | 0.00 | 0.00 | 44 | 1004.0 |
| 20260503171601 | 50 | 281 | 4.3 | 9.6 | 0.00 | 0.00 | 0.00 | 45 | 1004.0 |
| 20260503171047 | 50 | 306 | 3.5 | 7.8 | 0.00 | 0.00 | 0.00 | 46 | 1004.0 |
| 20260503170541 | 49 | 282 | 5.2 | 9.6 | 0.00 | 0.00 | 0.00 | 44 | 1004.0 |
| 20260503160133 | 49 | 289 | 5.2 | 10.4 | 0.00 | 0.00 | 0.00 | 49 | 1003.8 |
| 20260503150538 | 50 | 294 | 7.8 | 14.8 | 0.00 | 0.00 | 0.00 | 53 | 1003.8 |
| 20260503140112 | 47 | 281 | 4.3 | 12.2 | 0.00 | 0.00 | 0.00 | 61 | 1004.0 |
| 20260503131026 | 45 | 281 | 4.3 | 8.7 | 0.00 | 0.00 | 0.00 | 62 | 1004.2 |
| 20260503130538 | 45 | 289 | 5.2 | 10.4 | 0.00 | 0.00 | 0.00 | 61 | 1004.3 |
| 20260503110534 | 40 | 282 | 2.6 | 7.0 | 0.00 | 0.00 | 0.00 | 66 | 1004.4 |
| 20260503110120 | 40 | 306 | 1.7 | 7.0 | 0.00 | 0.00 | 0.00 | 66 | 1004.3 |
| 20260503081521 | 42 | 298 | 2.6 | 6.1 | 0.00 | 0.00 | 0.00 | 57 | 1004.6 |
| 20260503081117 | 42 | 328 | 0.9 | 5.2 | 0.00 | 0.00 | 0.00 | 57 | 1004.8 |
| 20260503080629 | 42 | 295 | 3.5 | 8.7 | 0.00 | 0.00 | 0.00 | 57 | 1005.0 |
| 20260503080104 | 42 | 263 | 1.7 | 5.2 | 0.00 | 0.00 | 0.00 | 57 | 1004.9 |
| 20260503072614 | 43 | 294 | 2.6 | 4.3 | 0.00 | 0.00 | 0.00 | 55 | 1005.1 |
| 20260503072109 | 43 | 304 | 2.6 | 3.5 | 0.00 | 0.00 | 0.00 | 55 | 1005.2 |
| 20260503071604 | 43 | 9 | 2.6 | 4.3 | 0.00 | 0.00 | 0.00 | 54 | 1005.2 |
| 20260503071053 | 43 | 283 | 2.6 | 5.2 | 0.00 | 0.00 | 0.00 | 54 | 1005.3 |
| 20260503070547 | 43 | 289 | 2.6 | 4.3 | 0.00 | 0.00 | 0.00 | 53 | 1005.2 |
| 20260503060116 | 45 | 43 | 0.9 | 3.5 | 0.00 | 0.00 | 0.00 | 53 | 1005.9 |
| 20260503055054 | 45 | 301 | 1.7 | 5.2 | 0.00 | 0.00 | 0.00 | 52 | 1006.2 |
| 20260503054544 | 45 | 353 | 0.9 | 5.2 | 0.00 | 0.00 | 0.00 | 51 | 1006.2 |
| 20260503054039 | 45 | 310 | 0.9 | 6.1 | 0.00 | 0.00 | 0.00 | 52 | 1006.2 |
| 20260503053536 | 45 | 18 | 1.7 | 5.2 | 0.00 | 0.00 | 0.00 | 52 | 1006.1 |
| 20260503053026 | 45 | 40 | 1.7 | 7.0 | 0.00 | 0.00 | 0.00 | 52 | 1006.1 |
| 20260503052518 | 45 | 45 | 0.9 | 5.2 | 0.00 | 0.00 | 0.00 | 52 | 1006.2 |
| 20260503052137 | 45 | 11 | 0.9 | 6.1 | 0.00 | 0.00 | 0.00 | 53 | 1006.3 |
| 20260503051609 | 45 | 175 | 0.9 | 2.6 | 0.00 | 0.00 | 0.00 | 53 | 1006.2 |
| 20260503051116 | 45 | 49 | 1.7 | 2.6 | 0.00 | 0.00 | 0.00 | 55 | 1006.5 |
| 20260503050553 | 45 | 321 | 0.9 | 3.5 | 0.00 | 0.00 | 0.00 | 53 | 1006.8 |
| 20260503050044 | 45 | 130 | 0.9 | 4.3 | 0.00 | 0.00 | 0.00 | 53 | 1006.7 |
| 20260503045536 | 45 | 115 | 1.7 | 3.5 | 0.00 | 0.00 | 0.00 | 54 | 1006.5 |
| 20260503045023 | 45 | 72 | 0.9 | 4.3 | 0.00 | 0.00 | 0.00 | 55 | 1006.5 |
| 20260503044517 | 46 | 62 | 1.7 | 4.3 | 0.00 | 0.00 | 0.00 | 54 | 1006.7 |
| 20260503044109 | 46 | 54 | 0.9 | 4.3 | 0.00 | 0.00 | 0.00 | 54 | 1006.6 |
| 20260503043602 | 46 | 16 | 2.6 | 4.3 | 0.00 | 0.00 | 0.00 | 53 | 1006.8 |
| 20260503043054 | 46 | 45 | 1.7 | 6.1 | 0.00 | 0.00 | 0.00 | 53 | 1006.6 |
| 20260503042549 | 46 | 124 | 0.9 | 6.1 | 0.00 | 0.00 | 0.00 | 55 | 1006.8 |